{"data":{"norad_id":62871,"intl_designator":"2025-022T","name":"STARLINK-32814","alt_names":[],"object_type":"PAYLOAD","status":"ACTIVE","operator":null,"country":"US","launch_date":"2025-02-01","launch_site_code":"AFWTR","launch_vehicle":null,"mission":null,"orbit_class":"UNKNOWN","rcs_meters":null,"size_class":null,"mass_kg":null,"dimensions":null,"purposes":["comms"],"wikipedia_slug":null,"has_3d_model":false,"image_url":null,"decayed_at":null,"tle_current":{"epoch":"2026-05-25T03:17:29.878368Z","epoch_age_seconds":59080,"freshness":"FRESH","line1":"1 62871U 25022T   26145.13715137  .00018498  00000+0  63491-3 0  9996","line2":"2 62871  53.1569 134.5902 0001283  93.4218 266.6930 15.30210424 73600","mean_motion":15.30210424,"eccentricity":0.0001283,"inclination_deg":53.1569,"raan_deg":134.5902,"arg_perigee_deg":93.4218,"mean_anomaly_deg":266.693,"bstar":0.00063491,"rev_number":7360,"period_min":94.104704648124,"perigee_km":474.30466433365,"apogee_km":476.06322648824,"semimajor_km":6853.3209454109,"source":"CELESTRAK","updated_at":"2026-05-25T13:38:19.786980Z"}}}